Вернуться в каталог

STARLINK-4712

АктивенСвязьVLEO
NORAD 53798·PAYLOAD·🇺🇸 United States

Запущен Sep 11, 2022 с Cape Canaveral Space Force Station

Loading…

Ближайшие Пролёты (ближайшие 24 часа)

TLE

СвежийSource: CelesTrak SupGP

Эпоха: Sep 14, 2026, 21:42 UTC

1 53798C 22111AB  26257.90465278 -.00078467  00000+0 -25219-2 0  2573
2 53798  53.1575 131.9224 0001367  85.4963 307.2549 15.31758075    17

Отслеживайте STARLINK-4712 в реальном времени с AllMySat

Download on the App Store